Home   Weather   34°25'N, 119°41'W   Past weeks
Flag for USA

Past Weather in 34°25'N, 119°41'W, USA — Yesterday and Last 2 Weeks

Now
60 °F

Fog.


Feels Like: 60 °F
Forecast: 67 / 58 °F
Wind: N/A

Location: Santa Barbara Municipal Airport

Current Time: Jul 19, 2019 at 5:41:00 am

Latest Report: Jul 19, 2019 at 4:53 am


Visibility: 6 mi

Pressure: 29.92 "Hg

Humidity: 93%

Dew Point: 58 °F

Location of 34°25'N, 119°41'WLocation

Past Weather in 34°25'N, 119°41'W — Graph

°F

34°25'N, 119°41'W Temperature Yesterday

Maximum temperature yesterday: 71 °F (at 2:53 pm)
Minimum temperature yesterday: 59 °F (at 4:53 am)
Average temperature yesterday: 63 °F

High & Low Weather Summary for the Past Weeks

 TemperatureHumidityPressure
High76 °F (Jul 16, 1:53 pm)100% (Jul 14, 12:38 am)30.07 "Hg (Jul 14, 12:38 am)
Low55 °F (Jul 5, 3:53 am)56% (Jul 12, 4:53 pm)29.78 "Hg (Jul 12, 7:53 pm)
Average63 °F83%29.94 "Hg
* Reported Jul 4 4:53 am — Jul 19 4:04 am, 34°25'N, 119°41'W. Weather by CustomWeather, © 2019

Note: Actual official high and low records may vary slightly from our data, if they occured in-between our weather recording intervals... More about our weather records

Advertising

34°25'N, 119°41'W Weather History for the Previous 24 Hours

Scroll right to see more
 ConditionsComfort  
Time TempWeatherWind HumidityBarometerVisibility
4:04 am
Fri, Jul 19
60 °FFog.No wind96%29.92 "Hg5 mi
3:53 am60 °FFog.No wind96%29.92 "Hg6 mi
2:53 am60 °FFog.3 mph93%29.92 "Hg5 mi
1:53 am60 °FLow clouds.N/A93%29.92 "Hg9 mi
12:53 am60 °FLow clouds.No wind93%29.92 "Hg10 mi
11:53 pm
Thu, Jul 18
60 °FLow clouds.5 mph93%29.92 "Hg10 mi
11:15 pm60 °FPassing clouds.5 mph93%29.93 "Hg10 mi
10:53 pm60 °FPassing clouds.5 mph90%29.93 "Hg10 mi
10:11 pm60 °FPassing clouds.6 mph90%29.92 "Hg10 mi
9:53 pm61 °FClear.7 mph87%29.92 "Hg10 mi
8:53 pm61 °FClear.7 mph90%29.90 "Hg10 mi
7:53 pm63 °FSunny.7 mph81%29.89 "Hg10 mi
6:53 pm65 °FSunny.10 mph78%29.90 "Hg10 mi
5:53 pm67 °FSunny.12 mph73%29.90 "Hg10 mi
4:53 pm68 °FSunny.10 mph70%29.92 "Hg10 mi
3:53 pm69 °FSunny.8 mph70%29.94 "Hg10 mi
2:53 pm71 °FSunny.6 mph66%29.96 "Hg6 mi
1:53 pm70 °FSunny.6 mph71%29.97 "Hg7 mi
1:02 pm70 °FScattered clouds.6 mph71%29.97 "Hg7 mi
11:53 am67 °FMore clouds than sun.5 mph79%29.98 "Hg6 mi
10:53 am65 °FOvercast.5 mph85%29.99 "Hg8 mi
10:00 am65 °FOvercast.5 mph85%29.99 "Hg8 mi
8:53 am65 °FOvercast.No wind85%29.98 "Hg8 mi
7:53 am62 °FMore clouds than sun.No wind90%29.98 "Hg7 mi
6:53 am59 °FFog.5 mph96%29.97 "Hg4 mi
5:53 am59 °FFog.No wind93%29.97 "Hg4 mi
Weather by CustomWeather, © 2019

See weather overview